COSMOS 2236 (GLONASS)

Satellite information

Favourite Embed

Satellite Type and Status

PAYLOADIN ORBIT

Key statistics

Satellite COSMOS 2236 (GLONASS) at a glance.

Uptime

11939

Days in orbit

Revolutions

≈ 2.1

Per day

Orbit

MEO

Medium Earth Orbit

Inclination

64.8

Latest

Satellite identification and parameters

Extended collection of information and parameters for COSMOS 2236 (GLONASS).

Object identification

Identified? True

Debris? False

Object name: COSMOS 2236 (GLONASS)

International designator: 1993-010B

Object number (NORAD): 22513

Object ID (CCSDS): 22513

Country: COMMONWEALTH OF INDEPENDENT STATES (CIS)

Current information (Y/N): Y

RCS size: LARGE

Orbital parameters

Period: 675.725 minutes

Inclination: 64.7574 deg

SMA: 25507.818 km

Apoapsis: 19141.814 km

Periapsis: 19117.552 km

RAAN: 78.0699 deg

Eccentricy: 0.00047558

Argument of periapsis: 76.5458 deg

Mean anomaly: 286.7129 deg

Mean motion: 2.13104587 rev/day

Mean motion (dot): 0.00000006 rev/day2

B* drag term: 0.0 1/REarth

Two-line elements (TLE)

Creation date: Oct. 25, 2025, 3:11 a.m.

Reference frame: TEME

Reference center: EARTH

Epoch: Oct. 24, 2025, 6:22 a.m. UTC

TLE line 0: 0 COSMOS 2236 (GLONASS)

TLE line 1: 1 22513U 93010B 25297.26572538 .00000006 00000-0 00000-0 0 9995

TLE line 2: 2 22513 64.7574 78.0699 0004756 76.5458 286.7129 2.13104587254359

Live tracking on map

Real-time ground track for satellite COSMOS 2236 (GLONASS).

In-orbit conjunctions

A list of the most updated potential collisions computed for object COSMOS 2236 (GLONASS).

Target Orbit TCA Probability of collision Miss distance Type
SL-12 R/B(2) MEO 2025-05-23 21:18:08 TBA 1212.0 (m) ROCKET BODY

Associated space launch

GLONASS navigation satellites

COSMOS 2236 (GLONASS) was lifted into orbit during the mission ‘Proton | Uragan 51 to 53’, on board a Proton space rocket.

The launch took place on Feb. 17, 1993, 8:09 p.m. from 81/23 (81L).

For more information about the launch, click the button.

Launch to space Proton | Uragan 51 to 53
Proton | Uragan 51 to 53

Agency: N/A

Status: Launch Successful

Launch date: Feb. 17, 1993, 8:09 p.m. UTC

Rocket: Proton

Launch pad: 81/23 (81L)

Location: Baikonur Cosmodrome, Republic of Kazakhstan

...

Latest news about this satellite

There are no fresh news available about this satellite. Check back as we update our databases every day.


Newsletter sign-up

Weekly statistics, charts and insights to help you stay on top of the space industry.